Weather in Vancouver

United States     45°38′25″N   122°40′11″W
temp.,
°C
wind,
m/s
gust,
m/s
humid.,
%
clouds,
%
prec.,
mm/h
press.,
hPa
HPBL,
m
24 may, tue
tue2423:00+8nw279597 0.0 1022143
02:00+7nnw119733 0.0 102211
05:00+7nnw119696 0.0 102120
08:00+10ese008290 0.0 1020295
11:00+14w016898 0.0 1020523
14:00+14nw0172100 0.0 1019229
17:00+14ese0179100 0.0 1018114
20:00+12se1183100 0.0 101713
25 may, wed
wed2523:00+12se1182100 0.0 101715
02:00+12ese1181100 0.0 101715
05:00+11se008496 0.0 101713
08:00+14nnw0078100 0.0 1017267
11:00+17se1167100 0.0 1016831
14:00+21e125696 0.0 10151227
17:00+22e1157100 0.0 1012775
20:00+18wnw2278100 0.0 101219
26 may, thu
thu2623:00+13nnw2581100 0.0 101185
02:00+12nw2287100 0.0 101042
05:00+11wnw1186100 0.0 100911
08:00+15se1177100 0.0 1010177
11:00+19sse1267100 0.0 1012686
14:00+19se1276100 1.3 1012671
17:00+18s2485100 3.6 1012474
20:00+14wnw1190100 2.4 101228
27 may, fri
fri2723:00+12nw1298100 3.7 101383
02:00+12nw249865 0.9 1014169
05:00+10nnw269790 1.1 1016239
08:00+11nnw258674 0.0 1017449
11:00+14nnw1258100 0.0 10171446
14:00+16e1255100 0.0 10171253
17:00+17se115596 0.0 10151164
20:00+14ssw007632 0.1 101410
28 may, sat
sat2823:00+9nnw2284100 0.1 101432
02:00+8n1187100 0.1 101411
05:00+8ese1195100 0.1 101317
08:00+9ene1294100 0.3 1011105
11:00+10nnw0192100 0.6 100993
14:00+11se1297100 1.1 1007170
17:00+12sse51293100 1.3 10061046
20:00+12s5119183 0.3 1005847